Salerno / Pontecagnano Airport LIRI

Flugplatz Daten

Name: Salerno / Pontecagnano Airport

Ident: LIRI

Lat: 40,62039948

Long: 14,91129971

Platzhöhe: 119 ft

IataCode: QSR

City: Salerno

Homepage: http://www.aeroportosalerno.it/

Metar

2022/08/13 16:50
LIRI 131650Z 24005KT 190V270 CAVOK 27/20 Q1010

Taf

Gewünschte Webcam nicht vorhanden? Dann fügen Sie eine hinzu. Sie wird dann so schnell wie möglich freigeschaltet
Url: Title: